Time,TemperatureF,DewpointF,PressureIn,WindDirection,WindDirectionDegrees,WindSpeedMPH,WindSpeedGustMPH,Humidity,HourlyPrecipIn,Conditions,Clouds,dailyrainin,SoftwareType,DateUTC
2013-12-15 00:02:00,69.0,68.0,30.01,SE,140,2.0,4.0,96,-99.99,,,-99.99,,2013-12-15 05:02:00,
2013-12-15 00:22:00,68.0,67.0,30.02,SSE,150,2.0,3.0,96,-99.99,,,-99.99,,2013-12-15 05:22:00,
2013-12-15 00:42:00,67.0,66.0,30.01,SSE,150,2.0,3.0,96,-99.99,,,-99.99,,2013-12-15 05:42:00,
2013-12-15 00:53:00,65.0,64.0,30.00,SSE,157,3.0,4.0,97,-99.99,,,-99.99,,2013-12-15 05:53:00,
2013-12-15 01:02:00,65.0,64.0,30.00,SSE,157,3.0,4.0,97,-99.99,,,-99.99,,2013-12-15 06:02:00,
2013-12-15 01:22:00,65.0,64.0,30.01,SSE,160,2.0,5.0,97,-99.99,,,-99.99,,2013-12-15 06:22:00,
2013-12-15 01:42:00,64.0,64.0,30.01,SE,146,2.0,3.0,97,-99.99,,,-99.99,,2013-12-15 06:42:00,
2013-12-15 02:22:00,64.0,63.0,30.00,SSE,154,2.0,3.0,97,-99.99,,,-99.99,,2013-12-15 07:22:00,
2013-12-15 02:42:00,64.0,63.0,29.98,SSE,166,3.0,4.0,97,-99.99,,,-99.99,,2013-12-15 07:42:00,
2013-12-15 02:52:00,67.0,66.0,29.98,South,174,3.0,5.0,98,-99.99,,,-99.99,,2013-12-15 07:52:00,
2013-12-15 03:02:00,67.0,66.0,29.98,South,174,3.0,5.0,98,-99.99,,,-99.99,,2013-12-15 08:02:00,
2013-12-15 03:22:00,67.0,66.0,29.98,South,191,3.0,5.0,98,-99.99,,,-99.99,,2013-12-15 08:22:00,
2013-12-15 03:42:00,68.0,68.0,29.97,South,184,3.0,5.0,98,-99.99,,,-99.99,,2013-12-15 08:42:00,
2013-12-15 03:52:00,70.0,-99.9,29.96,South,170,4.0,7.0,98,-99.99,,,-99.99,,2013-12-15 08:52:00,
2013-12-15 04:03:00,70.0,-99.9,29.96,South,170,4.0,7.0,98,-99.99,,,-99.99,,2013-12-15 09:03:00,
2013-12-15 04:22:00,70.0,70.0,29.96,SSE,161,3.0,5.0,98,-99.99,,,-99.99,,2013-12-15 09:22:00,
2013-12-15 04:43:00,70.0,69.0,29.96,SSE,156,2.0,4.0,98,-99.99,,,-99.99,,2013-12-15 09:43:00,
2013-12-15 04:53:00,70.0,-99.9,29.95,South,182,4.0,5.0,98,-99.99,,,-99.99,,2013-12-15 09:53:00,
2013-12-15 05:03:00,70.0,-99.9,29.95,South,182,4.0,5.0,98,-99.99,,,-99.99,,2013-12-15 10:03:00,
2013-12-15 05:23:00,71.0,-99.9,29.96,South,189,4.0,6.0,98,-99.99,,,-99.99,,2013-12-15 10:23:00,
2013-12-15 05:43:00,72.0,-99.9,29.96,SSW,195,4.0,9.0,98,-99.99,,,-99.99,,2013-12-15 10:43:00,
2013-12-15 06:22:00,73.0,72.0,29.97,SSW,211,4.0,8.0,98,-99.99,,,-99.99,,2013-12-15 11:22:00,
2013-12-15 06:43:00,73.0,-99.9,29.97,SSW,196,4.0,7.0,98,-99.99,,,-99.99,,2013-12-15 11:43:00,
2013-12-15 07:22:00,73.0,73.0,29.96,SSW,203,3.0,5.0,98,-99.99,,,-99.99,,2013-12-15 12:22:00,
2013-12-15 07:42:00,73.0,-99.9,29.97,SSW,200,4.0,7.0,98,-99.99,,,-99.99,,2013-12-15 12:42:00,
2013-12-15 08:22:00,73.0,73.0,29.98,South,188,4.0,7.0,98,-99.99,,,-99.99,,2013-12-15 13:22:00,
2013-12-15 08:42:00,74.0,-99.9,30.00,SSW,194,6.0,10.0,97,-99.99,,,-99.99,,2013-12-15 13:42:00,
2013-12-15 09:22:00,75.0,74.0,30.01,SSW,210,5.0,11.0,96,-99.99,,,-99.99,,2013-12-15 14:22:00,
2013-12-15 09:42:00,75.0,-99.9,30.02,SSW,208,4.0,9.0,95,-99.99,,,-99.99,,2013-12-15 14:42:00,
2013-12-15 10:22:00,76.0,74.0,30.03,SSW,210,5.0,9.0,94,-99.99,,,-99.99,,2013-12-15 15:22:00,
2013-12-15 10:33:00,76.0,74.0,30.03,SSW,210,5.0,9.0,94,-99.99,,,-99.99,,2013-12-15 15:33:00,
2013-12-15 11:13:00,73.0,70.0,30.05,West,259,10.0,23.0,90,-99.99,,,-99.99,,2013-12-15 16:13:00,
2013-12-15 11:23:00,71.0,70.0,30.05,West,271,7.0,13.0,95,-99.99,,,-99.99,,2013-12-15 16:23:00,
2013-12-15 11:33:00,71.0,70.0,30.05,West,271,7.0,13.0,95,-99.99,,,-99.99,,2013-12-15 16:33:00,
2013-12-15 11:53:00,71.0,70.0,30.04,WSW,255,6.0,11.0,96,-99.99,,,-99.99,,2013-12-15 16:53:00,
2013-12-15 12:12:00,71.0,70.0,30.03,West,265,7.0,37.0,96,-99.99,,,-99.99,,2013-12-15 17:12:00,
2013-12-15 12:22:00,71.0,70.0,30.03,WSW,241,5.0,8.0,96,-99.99,,,-99.99,,2013-12-15 17:22:00,
2013-12-15 12:33:00,71.0,70.0,30.03,WSW,241,5.0,8.0,96,-99.99,,,-99.99,,2013-12-15 17:33:00,
2013-12-15 12:52:00,71.0,-99.9,30.02,WSW,249,5.0,9.0,97,-99.99,,,-99.99,,2013-12-15 17:52:00,
2013-12-15 13:12:00,71.0,70.0,30.01,WSW,250,5.0,10.0,97,-99.99,,,-99.99,,2013-12-15 18:12:00,
2013-12-15 13:22:00,71.0,-99.9,30.00,West,281,6.0,83.0,97,-99.99,,,-99.99,,2013-12-15 18:22:00,
2013-12-15 13:32:00,71.0,-99.9,30.00,West,281,6.0,83.0,97,-99.99,,,-99.99,,2013-12-15 18:32:00,
2013-12-15 13:52:00,72.0,-99.9,29.99,WSW,237,3.0,7.0,97,-99.99,,,-99.99,,2013-12-15 18:52:00,
2013-12-15 14:11:00,73.0,-99.9,29.98,WSW,250,3.0,8.0,96,-99.99,,,-99.99,,2013-12-15 19:11:00,
2013-12-15 14:22:00,74.0,-99.9,29.98,WSW,249,4.0,7.0,89,-99.99,,,-99.99,,2013-12-15 19:22:00,
2013-12-15 14:32:00,74.0,-99.9,29.98,WSW,249,4.0,7.0,89,-99.99,,,-99.99,,2013-12-15 19:32:00,
2013-12-15 14:53:00,76.0,72.0,29.98,WSW,240,4.0,8.0,86,-99.99,,,-99.99,,2013-12-15 19:53:00,
2013-12-15 15:11:00,76.0,72.0,29.97,SW,226,4.0,7.0,86,-99.99,,,-99.99,,2013-12-15 20:11:00,
2013-12-15 15:22:00,76.0,72.0,29.97,West,269,3.0,5.0,86,-99.99,,,-99.99,,2013-12-15 20:22:00,
2013-12-15 15:32:00,76.0,72.0,29.97,West,269,3.0,5.0,86,-99.99,,,-99.99,,2013-12-15 20:32:00,
2013-12-15 15:52:00,77.0,72.0,29.97,West,272,4.0,8.0,84,-99.99,,,-99.99,,2013-12-15 20:52:00,
2013-12-15 16:11:00,77.0,72.0,29.97,West,263,5.0,10.0,82,-99.99,,,-99.99,,2013-12-15 21:11:00,
2013-12-15 16:22:00,77.0,71.0,29.98,WNW,283,5.0,8.0,79,-99.99,,,-99.99,,2013-12-15 21:22:00,
2013-12-15 16:33:00,77.0,71.0,29.98,WNW,283,5.0,8.0,79,-99.99,,,-99.99,,2013-12-15 21:33:00,
2013-12-15 16:54:00,78.0,71.0,29.98,WNW,285,5.0,9.0,78,-99.99,,,-99.99,,2013-12-15 21:54:00,
2013-12-15 17:12:00,78.0,71.0,29.99,WNW,283,5.0,9.0,78,-99.99,,,-99.99,,2013-12-15 22:12:00,
2013-12-15 17:23:00,76.0,70.0,29.99,WNW,291,7.0,13.0,83,-99.99,,,-99.99,,2013-12-15 22:23:00,
2013-12-15 17:33:00,76.0,70.0,29.99,WNW,291,7.0,13.0,83,-99.99,,,-99.99,,2013-12-15 22:33:00,
2013-12-15 17:53:00,75.0,70.0,30.00,WNW,286,4.0,11.0,86,-99.99,,,-99.99,,2013-12-15 22:53:00,
2013-12-15 18:12:00,73.0,69.0,30.00,WNW,286,3.0,6.0,88,-99.99,,,-99.99,,2013-12-15 23:12:00,
2013-12-15 18:52:00,70.0,68.0,30.02,WNW,284,2.0,3.0,94,-99.99,,,-99.99,,2013-12-15 23:52:00,
2013-12-15 19:11:00,67.0,66.0,30.02,SW,234,2.0,3.0,94,-99.99,,,-99.99,,2013-12-16 00:11:00,
2013-12-15 19:52:00,68.0,67.0,30.04,West,280,3.0,5.0,97,-99.99,,,-99.99,,2013-12-16 00:52:00,
2013-12-15 20:11:00,69.0,68.0,30.05,WNW,282,3.0,6.0,96,-99.99,,,-99.99,,2013-12-16 01:11:00,
2013-12-15 20:52:00,69.0,67.0,30.06,WNW,298,3.0,6.0,92,-99.99,,,-99.99,,2013-12-16 01:52:00,
2013-12-15 21:11:00,70.0,67.0,30.07,NW,307,3.0,5.0,90,-99.99,,,-99.99,,2013-12-16 02:11:00,
2013-12-15 21:52:00,70.0,66.0,30.08,NW,320,4.0,7.0,88,-99.99,,,-99.99,,2013-12-16 02:52:00,
2013-12-15 22:11:00,69.0,66.0,30.09,NW,325,3.0,5.0,88,-99.99,,,-99.99,,2013-12-16 03:11:00,
2013-12-15 22:54:00,69.0,66.0,30.09,NNW,328,3.0,5.0,89,-99.99,,,-99.99,,2013-12-16 03:54:00,
2013-12-15 23:13:00,69.0,65.0,30.10,SW,228,5.0,12.0,88,-99.99,,,-99.99,,2013-12-16 04:13:00,
2013-12-15 23:23:00,69.0,65.0,30.10,SW,228,5.0,12.0,88,-99.99,,,-99.99,,2013-12-16 04:23:00,
2013-12-15 23:42:00,69.0,65.0,30.10,SSE,164,5.0,10.0,86,-99.99,,,-99.99,,2013-12-16 04:42:00,
2013-12-15 23:53:00,68.0,63.0,30.10,ESE,115,5.0,10.0,84,-99.99,,,-99.99,,2013-12-16 04:53:00,